LogID,LogEntryDate,LogEntryTime,LogEntrySeconds,LogNotes,AFR,ZTXUser2,RearAFR,EthanolPercent,STFT,CurrentLTFT,IdleLTFT,CruiseLTFT,Load,O2Sensor2,IPW,AFRMAP,LoadTiming,TimingAdv,KnockSum,RPM,Baro,MAP,Boost,WGDC_Active,MAF,IDC,InVVTtarget,ExVVTtarget,InVVTactual,ExVVTactual,TPS,APP,IAT,WGDCCorr,Speed,Battery,ECT,MAT,MAPCalcs,IMAPCalcs,MAFCalcs,ChosenCalc,Custom
1,2017-08-12,12:55:20.44748,0.10203,,,,,64.7058823529412,0,-3.125,-3.125,6.8359375,14.0625,0,0,14.7,14.0625,0,0,2945.3125,14.79384948,3.7629891,-11.03086038,13,1.745112,0,11.25,-2.5,10.46875,0,14.5098039215686,9.10588235294118,86,0,31.075,14.00603,185,105.8,17.1875,0,14.0625,14.0625,
2,2017-08-12,12:55:20.46749,0.12221,,,,,64.7058823529412,0,-3.125,-3.125,6.8359375,14.0625,0,0,14.7,14.0625,0,0,2914.0625,14.79384948,3.7629891,-11.03086038,13,1.745112,0,11.25,-2.5,10.46875,0,14.5098039215686,9.10588235294118,86,0,31.075,14.00603,185,105.8,17.1875,0,12.5,14.0625,
3,2017-08-12,12:55:20.48849,0.14295,,,,,64.7058823529412,0,-3.125,-3.125,6.8359375,14.0625,0,0,14.7,14.0625,0,0,2914.0625,14.79384948,3.7629891,-11.03086038,13,1.725504,0,11.25,-2.5,10.46875,0,14.5098039215686,9.10588235294118,86,0,31.075,14.00603,185,105.8,17.1875,0,12.5,14.0625,
4,2017-08-12,12:55:20.51149,0.16608,,,,,64.7058823529412,0,-3.125,-3.125,6.8359375,14.0625,0,0,14.7,14.0625,0,0,2906.25,14.79384948,3.7629891,-11.03086038,13,1.725504,0,11.25,-2.5,10.46875,0,14.5098039215686,9.10588235294118,86,0,31.075,14.00603,185,105.8,17.1875,0,14.0625,14.0625,
5,2017-08-12,12:55:20.54449,0.19936,,,,,64.3137254901961,0,-3.125,-3.125,6.8359375,14.0625,0,0,14.7,14.0625,0,0,2914.0625,14.79384948,3.6665022,-11.12734728,13,1.725504,0,11.25,-2.5,10.46875,0,14.5098039215686,9.10588235294118,86,0,31.075,14.00603,185,105.8,17.1875,0,14.0625,14.0625,
6,2017-08-12,12:55:20.58149,0.23598,,,,,64.7058823529412,0,-3.125,-3.125,6.8359375,14.0625,0,0,14.7,14.0625,0,0,2906.25,14.79384948,3.6665022,-11.12734728,13,1.725504,0,11.25,-2.5,10.625,-0.15625,14.5098039215686,9.10588235294118,86,0,31.075,14.00603,185,105.8,17.1875,0,14.0625,14.0625,
7,2017-08-12,12:55:20.61749,0.27185,,,,,64.3137254901961,0,-3.125,-3.125,6.8359375,14.0625,0,0,14.7,14.0625,0,0,2898.4375,14.79384948,3.6665022,-11.12734728,13,1.705896,0,11.25,-2.5,10.625,-0.15625,14.5098039215686,9.10588235294118,86,0,31.075,14.00603,185,105.8,17.1875,0,12.5,14.0625,
8,2017-08-12,12:55:20.66150,0.31676,,,,,64.7058823529412,0,-3.125,-3.125,6.8359375,14.0625,0,0,14.7,14.0625,0,0,2906.25,14.79384948,3.6665022,-11.12734728,13,1.705896,0,11.25,-1.875,10.78125,0.3125,14.5098039215686,9.61176470588235,86,0,31.075,14.00603,185,105.8,17.1875,0,14.0625,14.0625,
9,2017-08-12,12:55:20.69750,0.35262,,,,,64.7058823529412,0,-3.125,-3.125,6.8359375,14.0625,0,0,14.7,14.0625,0,0,2882.8125,14.79384948,3.6665022,-11.12734728,13,1.725504,0,11.25,-1.875,10.78125,0.3125,14.5098039215686,9.61176470588235,86,0,31.075,13.9327,185,105.8,17.1875,0,12.5,14.0625,
10,2017-08-12,12:55:20.73250,0.38687,,,,,64.3137254901961,0,-3.125,-3.125,6.8359375,14.0625,0,0,14.7,14.0625,0,0,2890.625,14.79384948,3.6665022,-11.12734728,13,1.725504,0,11.25,-1.875,10.9375,0.46875,14.5098039215686,9.61176470588235,86,0,31.075,13.9327,185,105.8,17.1875,0,12.5,14.0625,
11,2017-08-12,12:55:20.76350,0.41807,,,,,64.7058823529412,0,-3.125,-3.125,6.8359375,14.0625,0,0,14.7,14.0625,0,0,2875,14.79384948,3.6665022,-11.12734728,13,1.725504,0,11.25,-1.875,10.9375,0.46875,14.5098039215686,9.61176470588235,86,0,31.075,13.9327,185,105.8,17.1875,0,14.0625,14.0625,
12,2017-08-12,12:55:20.79750,0.45271,,,,,64.7058823529412,0,-3.125,-3.125,6.8359375,14.0625,0,0,14.7,14.0625,0,0,2890.625,14.79384948,3.6665022,-11.12734728,13,1.725504,0,11.25,-1.875,11.09375,0.46875,14.5098039215686,9.61176470588235,86,0,31.075,14.07936,185,107.6,17.1875,0,14.0625,14.0625,
13,2017-08-12,12:55:20.82251,0.47766,,,,,64.7058823529412,0,-3.125,-3.125,6.8359375,14.0625,0,0,14.7,14.0625,0,0,2875,14.79384948,3.6665022,-11.12734728,13,1.725504,0,11.25,-1.875,11.09375,0.46875,14.5098039215686,9.61176470588235,86,0,31.075,14.07936,185,107.6,17.1875,0,14.0625,14.0625,
14,2017-08-12,12:55:20.86051,0.51533,,,,,64.7058823529412,0,-3.125,-3.125,6.8359375,14.0625,0,0,14.7,14.0625,0,0,2875,14.79384948,3.6665022,-11.12734728,13,1.725504,0,11.25,-2.5,10.625,0.3125,14.5098039215686,9.10588235294118,86,0,31.075,14.07936,185,107.6,17.1875,0,14.0625,14.0625,
15,2017-08-12,12:55:20.89051,0.54547,,,,,64.7058823529412,0,-3.125,-3.125,6.8359375,14.0625,0,0,14.7,14.0625,0,0,2859.375,14.79384948,3.6665022,-11.12734728,13,1.705896,0,11.25,-2.5,10.625,0.3125,14.5098039215686,9.10588235294118,86,0,31.075,14.07936,185,107.6,17.1875,0,14.0625,14.0625,
16,2017-08-12,12:55:20.92051,0.57542,,,,,64.7058823529412,0,-3.125,-3.125,6.8359375,14.0625,0,0,14.7,14.0625,0,0,2851.5625,14.79384948,3.6665022,-11.12734728,13,1.705896,0,11.25,-2.5,11.09375,0.3125,14.5098039215686,9.10588235294118,86,0,31.075,14.07936,185,107.6,17.1875,0,14.0625,14.0625,
17,2017-08-12,12:55:20.95051,0.60575,,,,,64.7058823529412,0,-3.125,-3.125,6.8359375,14.0625,0,0,14.7,14.0625,0,0,2843.75,14.79384948,3.6665022,-11.12734728,13,1.725504,0,11.25,-2.5,11.09375,0.3125,14.5098039215686,9.10588235294118,86,0,31.075,14.07936,185,107.6,17.1875,0,14.0625,14.0625,
18,2017-08-12,12:55:20.98352,0.63824,,,,,64.7058823529412,0,-3.125,-3.125,6.8359375,14.0625,0,0,14.7,14.0625,0,0,2851.5625,14.79384948,3.6665022,-11.12734728,13,1.725504,0,11.25,-2.5,10.78125,-0.15625,14.5098039215686,9.10588235294118,86,0,31.075,14.07936,185,107.6,17.1875,0,14.0625,14.0625,
19,2017-08-12,12:55:21.01552,0.67019,,,,,64.3137254901961,0,-3.125,-3.125,6.8359375,14.0625,0,0,14.7,14.0625,0,0,2859.375,14.79384948,3.6665022,-11.12734728,13,1.725504,0,11.25,-2.5,10.78125,-0.15625,14.5098039215686,9.10588235294118,86,0,31.075,14.07936,185,107.6,17.1875,0,14.0625,14.0625,
20,2017-08-12,12:55:21.05052,0.70543,,,,,64.7058823529412,0,-3.125,-3.125,6.8359375,14.0625,0,0,14.7,14.0625,0,0,2851.5625,14.79384948,3.6665022,-11.12734728,13,1.725504,0,11.25,-2.5,10.9375,0.3125,14.5098039215686,9.10588235294118,86,0,31.075,14.07936,185,107.6,17.1875,0,14.0625,14.0625,
21,2017-08-12,12:55:21.08752,0.74189,,,,,64.3137254901961,0,-3.125,-3.125,6.8359375,14.0625,0,0,14.7,14.0625,0,0,2843.75,14.79384948,3.6665022,-11.12734728,12.5,1.686288,0,11.25,-2.5,10.9375,0.3125,14.5098039215686,9.10588235294118,86,0,31.075,14.07936,185,107.6,17.1875,0,14.0625,14.0625,
22,2017-08-12,12:55:21.12252,0.77714,,,,,64.7058823529412,0,-3.125,-3.125,6.8359375,14.0625,0,0,14.7,14.0625,0,0,2835.9375,14.79384948,3.6665022,-11.12734728,12.5,1.686288,0,11.25,-2.5,10.46875,0,14.5098039215686,9.10588235294118,86,0,31.075,14.07936,185,107.6,17.1875,0,12.5,14.0625,
23,2017-08-12,12:55:21.16253,0.81737,,,,,64.7058823529412,0,-3.125,-3.125,6.8359375,14.0625,0,0,14.7,14.0625,0,0,2843.75,14.79384948,3.6665022,-11.12734728,12.5,1.745112,0,11.25,-2.5,10.46875,0,14.1176470588235,9.10588235294118,86,0,31.075,14.07936,185,107.6,17.1875,0,14.0625,14.0625,
24,2017-08-12,12:55:21.19653,0.85136,,,,,64.7058823529412,0,-3.125,-3.125,6.8359375,14.0625,0,0,14.7,14.0625,0,0,2843.75,14.79384948,3.6665022,-11.12734728,12.5,1.745112,0,11.25,-2.5,11.09375,0.46875,14.1176470588235,9.10588235294118,86,0,29.832,14.07936,185,107.6,17.1875,0,14.0625,14.0625,
25,2017-08-12,12:55:21.23253,0.88695,,,,,64.7058823529412,0,-3.125,-3.125,6.8359375,14.0625,0,0,14.7,14.0625,0,0,2828.125,14.79384948,3.5700153,-11.22383418,12.5,1.705896,0,11.25,-2.5,11.09375,0.46875,14.1176470588235,9.10588235294118,86,0,29.832,14.07936,185,107.6,17.1875,0,14.0625,14.0625,
26,2017-08-12,12:55:21.26753,0.92219,,,,,64.3137254901961,0,-3.125,-3.125,6.8359375,14.0625,0,0,14.7,14.0625,0,0,2820.3125,14.79384948,3.5700153,-11.22383418,12.5,1.705896,0,11.25,-2.5,10.46875,0.3125,14.1176470588235,9.10588235294118,86,0,29.832,14.07936,185,107.6,17.1875,0,12.5,14.0625,
27,2017-08-12,12:55:21.30853,0.96339,,,,,64.7058823529412,0,-3.125,-3.125,6.8359375,14.0625,0,0,14.7,14.0625,0,0,2812.5,14.79384948,3.6665022,-11.12734728,12.5,1.725504,0,11.25,-2.5,10.46875,0.3125,14.1176470588235,9.10588235294118,86,0,29.832,14.00603,185,107.6,17.1875,0,14.0625,14.0625,
28,2017-08-12,12:55:21.33654,0.99158,,,,,64.7058823529412,0,-3.125,-3.125,6.8359375,14.0625,0,0,14.7,14.0625,0,0,2796.875,14.79384948,3.6665022,-11.12734728,12.5,1.725504,0,11.25,-2.5,11.25,0.3125,14.1176470588235,9.10588235294118,86,0,29.832,14.00603,185,107.6,17.1875,0,14.0625,14.0625,
29,2017-08-12,12:55:21.37954,1.03404,,,,,64.7058823529412,0,-3.125,-3.125,6.8359375,14.0625,0,0,14.7,14.0625,0,0,2804.6875,14.79384948,3.5700153,-11.22383418,12.5,1.705896,0,11.25,-2.5,11.25,0.3125,14.1176470588235,9.61176470588235,86,0,29.832,14.00603,185,107.6,17.1875,0,14.0625,14.0625,
30,2017-08-12,12:55:21.41154,1.06604,,,,,64.7058823529412,0,-3.125,-3.125,6.8359375,14.0625,0,0,14.7,14.0625,0,0,2796.875,14.79384948,3.5700153,-11.22383418,12.5,1.705896,0,11.25,-2.5,10.625,-0.15625,14.1176470588235,9.61176470588235,86,0,29.832,14.00603,185,107.6,17.1875,0,14.0625,14.0625,
31,2017-08-12,12:55:21.45054,1.10532,,,,,64.3137254901961,0,-3.125,-3.125,6.8359375,14.0625,0,0,14.7,14.0625,0,0,2789.0625,14.79384948,3.6665022,-11.12734728,12.5,1.725504,0,11.25,-2.5,10.625,-0.15625,14.1176470588235,9.61176470588235,86,0,29.832,14.00603,185,107.6,17.1875,0,14.0625,14.0625,
32,2017-08-12,12:55:21.48454,1.13922,,,,,64.3137254901961,0,-3.125,-3.125,6.8359375,14.0625,0,0,14.7,14.0625,0,0,2789.0625,14.79384948,3.6665022,-11.12734728,12.5,1.725504,0,11.25,-2.5,10.9375,0.46875,14.1176470588235,9.10588235294118,86,0,29.832,14.00603,185,107.6,17.1875,0,12.5,14.0625,
33,2017-08-12,12:55:21.52455,1.17932,,,,,64.7058823529412,0,-3.125,-3.125,6.8359375,14.0625,0,0,14.7,14.0625,0,0,2789.0625,14.79384948,3.5700153,-11.22383418,12.5,1.705896,0,11.25,-2.5,10.9375,0.46875,14.1176470588235,9.10588235294118,86,0,29.832,14.07936,185,107.6,17.1875,0,14.0625,14.0625,
34,2017-08-12,12:55:21.56155,1.21623,,,,,64.7058823529412,0,-3.125,-3.125,6.8359375,14.0625,0,0,14.7,14.0625,0,0,2781.25,14.79384948,3.5700153,-11.22383418,12.5,1.705896,0,11.25,-2.5,10.625,0,14.1176470588235,9.10588235294118,86,0,29.832,14.07936,185,107.6,17.1875,0,14.0625,14.0625,
35,2017-08-12,12:55:21.59255,1.24708,,,,,64.7058823529412,0,-3.125,-3.125,6.8359375,14.0625,0,0,14.7,14.0625,0,0,2773.4375,14.79384948,3.5700153,-11.22383418,13,1.686288,0,11.25,-2.5,10.625,0,14.1176470588235,9.10588235294118,86,0,29.832,14.07936,185,107.6,17.1875,0,12.5,14.0625,
36,2017-08-12,12:55:21.62855,1.28321,,,,,64.3137254901961,0,-3.125,-3.125,6.8359375,14.0625,0,0,14.7,14.0625,0,0,2781.25,14.79384948,3.5700153,-11.22383418,13,1.686288,0,11.25,-2.5,11.25,0.46875,14.1176470588235,9.10588235294118,86,0,29.832,14.07936,185,107.6,17.1875,0,14.0625,14.0625,
37,2017-08-12,12:55:21.65955,1.31426,,,,,64.7058823529412,0,-3.125,-3.125,6.8359375,14.0625,0,0,14.7,14.0625,0,0,2765.625,14.79384948,3.5700153,-11.22383418,13,1.705896,0,11.25,-2.5,11.25,0.46875,14.1176470588235,9.10588235294118,86,0,29.832,14.07936,185,107.6,17.1875,0,14.0625,14.0625,
38,2017-08-12,12:55:21.69356,1.34867,,,,,64.3137254901961,0,-3.125,-3.125,6.8359375,14.0625,0,0,14.7,14.0625,0,0,2757.8125,14.79384948,3.5700153,-11.22383418,13,1.705896,0,11.25,-2.5,10.46875,0,14.1176470588235,9.10588235294118,86,0,29.832,14.07936,185,107.6,17.1875,0,14.0625,14.0625,
39,2017-08-12,12:55:21.72756,1.38261,,,,,64.7058823529412,0,-3.125,-3.125,6.8359375,14.0625,0,0,14.7,14.0625,0,0,2757.8125,14.79384948,3.6665022,-11.12734728,13,1.725504,0,11.25,-2.5,10.46875,0,14.1176470588235,9.10588235294118,86,0,29.832,14.07936,185,107.6,15.625,0,14.0625,14.0625,
40,2017-08-12,12:55:21.75456,1.40908,,,,,64.7058823529412,0,-3.125,-3.125,6.8359375,14.0625,0,0,14.7,14.0625,0,0,2757.8125,14.79384948,3.6665022,-11.12734728,13,1.725504,0,11.25,-2.5,11.25,0.3125,14.1176470588235,9.10588235294118,86,0,29.832,14.07936,185,107.6,17.1875,0,14.0625,14.0625,
41,2017-08-12,12:55:21.79356,1.44847,,,,,64.7058823529412,0,-3.125,-3.125,6.8359375,14.0625,0,0,14.7,14.0625,0,0,2742.1875,14.79384948,3.5700153,-11.22383418,13,1.705896,0,11.25,-2.5,11.25,0.3125,14.1176470588235,9.61176470588235,86,0,29.832,14.07936,185,107.6,17.1875,0,14.0625,14.0625,
42,2017-08-12,12:55:21.82856,1.48347,,,,,64.3137254901961,0,-3.125,-3.125,6.8359375,14.0625,0,0,14.7,14.0625,0,0,2742.1875,14.79384948,3.5700153,-11.22383418,13,1.705896,0,11.25,-2.5,10.46875,0,14.1176470588235,9.61176470588235,86,0,29.832,14.00603,185,107.6,15.625,0,12.5,14.0625,
43,2017-08-12,12:55:21.85757,1.51259,,,,,64.3137254901961,0,-3.125,-3.125,6.8359375,14.0625,0,0,14.7,14.0625,0,0,2734.375,14.79384948,3.5700153,-11.22383418,13,1.725504,0,11.25,-2.5,10.46875,0,14.1176470588235,9.61176470588235,86,0,29.832,14.00603,185,107.6,17.1875,0,14.0625,14.0625,
44,2017-08-12,12:55:21.88557,1.54008,,,,,64.3137254901961,0,-3.125,-3.125,6.8359375,14.0625,0,0,14.7,14.0625,0,0,2734.375,14.79384948,3.5700153,-11.22383418,13,1.725504,0,11.25,-2.5,11.09375,0.625,14.1176470588235,9.61176470588235,86,0,29.832,14.00603,185,107.6,17.1875,0,14.0625,14.0625,
45,2017-08-12,12:55:21.93157,1.58592,,,,,64.3137254901961,0,-3.125,-3.125,6.8359375,14.0625,0,0,14.7,14.0625,0,0,2742.1875,14.79384948,3.6665022,-11.12734728,13.5,1.705896,0,11.25,-2.5,11.09375,0.625,14.1176470588235,9.61176470588235,86,0,28.589,14.07936,185,107.6,15.625,0,14.0625,14.0625,
46,2017-08-12,12:55:21.96757,1.62183,,,,,64.7058823529412,0,-3.125,-3.125,6.8359375,14.0625,0,0,14.7,14.0625,0,0,2726.5625,14.79384948,3.6665022,-11.12734728,13.5,1.705896,0,11.25,-2.5,10.625,0.15625,14.1176470588235,9.61176470588235,86,0,28.589,14.07936,185,107.6,17.1875,0,14.0625,14.0625,
47,2017-08-12,12:55:22.00357,1.65829,,,,,64.3137254901961,0,-3.125,-3.125,6.8359375,14.0625,0,0,14.7,14.0625,0,0,2726.5625,14.79384948,3.5700153,-11.22383418,13.5,1.705896,0,11.25,-2.5,10.625,0.15625,14.1176470588235,9.10588235294118,86,0,28.589,14.07936,185,107.6,17.1875,0,14.0625,14.0625,
48,2017-08-12,12:55:22.03658,1.69169,,,,,64.3137254901961,0,-3.125,-3.125,6.8359375,14.0625,0,0,14.7,14.0625,0,0,2726.5625,14.79384948,3.5700153,-11.22383418,13.5,1.705896,0,11.25,-2.5,11.09375,0.46875,14.1176470588235,9.10588235294118,86,0,28.589,14.00603,185,107.6,17.1875,0,14.0625,14.0625,
49,2017-08-12,12:55:22.06458,1.71925,,,,,64.7058823529412,0,-3.125,-3.125,6.8359375,14.0625,0,0,14.7,14.0625,0,0,2710.9375,14.79384948,3.5700153,-11.22383418,13.5,1.705896,0,11.25,-2.5,11.09375,0.46875,14.1176470588235,9.10588235294118,86,0,28.589,14.00603,185,107.6,17.1875,0,14.0625,14.0625,
50,2017-08-12,12:55:22.10158,1.75586,,,,,64.3137254901961,0,-3.125,-3.125,6.8359375,14.0625,0,0,14.7,14.0625,0,0,2710.9375,14.79384948,3.5700153,-11.22383418,13.5,1.705896,0,11.25,-2.5,11.25,0,14.1176470588235,9.61176470588235,87.8,0,28.589,14.00603,185,107.6,15.625,0,14.0625,14.0625,
51,2017-08-12,12:55:22.13958,1.7946,,,,,64.7058823529412,0,-3.125,-3.125,6.8359375,14.0625,0,0,14.7,14.0625,0,0,2703.125,14.79384948,3.5700153,-11.22383418,14,1.66668,0,11.25,-2.5,11.25,0,14.1176470588235,9.61176470588235,87.8,0,28.589,14.00603,185,107.6,17.1875,0,12.5,14.0625,
52,2017-08-12,12:55:22.16758,1.8219,,,,,64.7058823529412,0,-3.125,-3.125,6.8359375,14.0625,0,0,14.7,14.0625,0,0,2703.125,14.79384948,3.5700153,-11.22383418,14,1.66668,0,11.25,-2.5,10.78125,0.3125,14.1176470588235,9.61176470588235,87.8,0,28.589,14.00603,185,107.6,15.625,0,14.0625,14.0625,
53,2017-08-12,12:55:22.19758,1.85179,,,,,64.7058823529412,0,-3.125,-3.125,6.8359375,14.0625,0,0,14.7,14.0625,0,0,2703.125,14.79384948,3.5700153,-11.22383418,14,1.705896,0,11.25,-2.5,10.78125,0.3125,14.1176470588235,9.10588235294118,87.8,0,28.589,14.00603,185,107.6,17.1875,0,12.5,14.0625,
54,2017-08-12,12:55:22.23059,1.88492,,,,,64.7058823529412,0,-3.125,-3.125,6.8359375,14.0625,0,0,14.7,14.0625,0,0,2687.5,14.79384948,3.5700153,-11.22383418,14,1.705896,0,11.25,-2.5,11.25,0,14.1176470588235,9.10588235294118,87.8,0,28.589,14.00603,185,107.6,17.1875,0,14.0625,14.0625,
55,2017-08-12,12:55:22.25859,1.91326,,,,,64.7058823529412,0,-3.125,-3.125,6.8359375,14.0625,0,0,14.7,14.0625,0,0,2695.3125,14.79384948,3.5700153,-11.22383418,14.5,1.705896,0,11.25,-2.5,11.25,0,14.1176470588235,9.10588235294118,87.8,0,28.589,14.00603,185,107.6,17.1875,0,14.0625,14.0625,
56,2017-08-12,12:55:22.29059,1.9456,,,,,64.7058823529412,0,-3.125,-3.125,6.8359375,14.0625,0,0,14.7,14.0625,0,0,2695.3125,14.79384948,3.5700153,-11.22383418,14.5,1.705896,0,11.25,-1.875,10.78125,-0.15625,14.1176470588235,9.10588235294118,86,0,28.589,14.00603,185,107.6,17.1875,0,14.0625,14.0625,
57,2017-08-12,12:55:22.32359,1.97811,,,,,64.7058823529412,0,-3.125,-3.125,6.8359375,14.0625,0,0,14.7,14.0625,0,0,2671.875,14.79384948,3.5700153,-11.22383418,15,1.66668,0,11.25,-1.875,10.78125,-0.15625,14.1176470588235,9.10588235294118,86,0,28.589,14.00603,185,107.6,17.1875,0,12.5,14.0625,
58,2017-08-12,12:55:22.36059,2.01515,,,,,64.3137254901961,0,-3.125,-3.125,6.8359375,14.0625,0,0,14.7,14.0625,0,0,2679.6875,14.79384948,3.5700153,-11.22383418,15,1.66668,0,11.25,-2.5,10.9375,0.46875,14.1176470588235,9.10588235294118,86,0,28.589,14.00603,185,107.6,17.1875,0,14.0625,14.0625,
59,2017-08-12,12:55:22.39260,2.04775,,,,,64.7058823529412,0,-3.125,-3.125,6.8359375,14.0625,0,0,14.7,14.0625,0,0,2671.875,14.79384948,3.5700153,-11.22383418,15,1.686288,0,11.25,-2.5,10.9375,0.46875,14.1176470588235,9.10588235294118,86,0,28.589,14.00603,185,107.6,17.1875,0,14.0625,14.0625,
60,2017-08-12,12:55:22.42560,2.08055,,,,,64.7058823529412,0,-3.125,-3.125,6.8359375,14.0625,0,0,14.7,14.0625,0,0,2664.0625,14.79384948,3.5700153,-11.22383418,15,1.686288,0,11.25,-2.5,10.625,0.15625,14.1176470588235,9.10588235294118,86,0,28.589,14.00603,185,107.6,17.1875,0,14.0625,14.0625,
61,2017-08-12,12:55:22.45360,2.10793,,,,,64.7058823529412,0,-3.125,-3.125,6.8359375,14.0625,0,0,14.7,14.0625,0,0,2656.25,14.79384948,3.5700153,-11.22383418,15,1.705896,0,11.25,-2.5,10.625,0.15625,14.1176470588235,9.10588235294118,86,0,28.589,14.00603,185,107.6,17.1875,0,14.0625,14.0625,
62,2017-08-12,12:55:22.49560,2.14997,,,,,64.7058823529412,0,-3.125,-3.125,6.8359375,14.0625,0,0,14.7,14.0625,0,0,2671.875,14.79384948,3.5700153,-11.22383418,15,1.705896,0,11.25,-2.5,10.9375,0.46875,14.1176470588235,9.10588235294118,87.8,0,28.589,14.00603,185,107.6,17.1875,0,14.0625,14.0625,
63,2017-08-12,12:55:22.53260,2.18767,,,,,64.3137254901961,0,-3.125,-3.125,6.8359375,14.0625,0,0,14.7,14.0625,0,0,2648.4375,14.79384948,3.6665022,-11.12734728,15.5,1.705896,0,11.25,-2.5,10.9375,0.46875,14.1176470588235,9.10588235294118,87.8,0,28.589,14.00603,185,107.6,17.1875,0,14.0625,14.0625,
64,2017-08-12,12:55:22.56561,2.22008,,,,,64.3137254901961,0,-3.125,-3.125,6.8359375,14.0625,0,0,14.7,14.0625,0,0,2640.625,14.79384948,3.6665022,-11.12734728,15.5,1.705896,0,11.25,-2.5,10.625,0,14.1176470588235,9.10588235294118,87.8,0,28.589,14.00603,185,107.6,17.1875,0,14.0625,14.0625,
65,2017-08-12,12:55:22.60761,2.26199,,,,,64.7058823529412,0,-3.125,-3.125,6.8359375,14.0625,0,0,14.7,14.0625,0,0,2648.4375,14.79384948,3.5700153,-11.22383418,15.5,1.66668,0,11.25,-2.5,10.625,0,14.1176470588235,9.10588235294118,86,0,28.589,14.00603,185,107.6,17.1875,0,12.5,14.0625,
66,2017-08-12,12:55:22.64861,2.30329,,,,,64.3137254901961,0,-3.125,-3.125,6.8359375,14.0625,0,0,14.7,14.0625,0,0,2648.4375,14.79384948,3.5700153,-11.22383418,15.5,1.66668,0,11.25,-1.875,11.25,0.3125,14.1176470588235,9.10588235294118,86,0,27.346,14.07936,185,107.6,17.1875,0,12.5,14.0625,
67,2017-08-12,12:55:22.68161,2.33665,,,,,64.7058823529412,0,-3.125,-3.125,6.8359375,14.0625,0,0,14.7,14.0625,0,0,2640.625,14.79384948,3.6665022,-11.12734728,15.5,1.66668,0,11.25,-1.875,11.25,0.3125,14.1176470588235,9.10588235294118,86,0,27.346,14.07936,185,107.6,17.1875,0,14.0625,14.0625,
68,2017-08-12,12:55:22.70761,2.36194,,,,,64.7058823529412,0,-3.125,-3.125,6.8359375,14.0625,0,0,14.7,14.0625,0,0,2640.625,14.79384948,3.6665022,-11.12734728,15.5,1.66668,0,11.25,-1.875,10.625,0,14.1176470588235,9.10588235294118,86,0,27.346,14.07936,185,107.6,17.1875,0,14.0625,14.0625,
69,2017-08-12,12:55:22.74762,2.40255,,,,,64.7058823529412,0,-3.125,-3.125,6.8359375,14.0625,0,0,14.7,14.0625,0,0,2632.8125,14.79384948,3.5700153,-11.22383418,16,1.686288,0,11.25,-1.875,10.625,0,14.1176470588235,9.10588235294118,86,0,27.346,14.00603,185,107.6,17.1875,0,14.0625,14.0625,
70,2017-08-12,12:55:22.77562,2.4299,,,,,64.7058823529412,0,-3.125,-3.125,6.8359375,14.0625,0,0,14.7,14.0625,0,0,2632.8125,14.79384948,3.5700153,-11.22383418,16,1.686288,0,11.25,-1.875,11.09375,0.625,14.1176470588235,9.10588235294118,86,0,27.346,14.00603,185,107.6,17.1875,0,14.0625,14.0625,
71,2017-08-12,12:55:22.80762,2.46197,,,,,64.7058823529412,0,-3.125,-3.125,6.8359375,14.0625,0,0,14.7,14.0625,0,0,2632.8125,14.79384948,3.5700153,-11.22383418,16,1.705896,0,11.25,-1.875,11.09375,0.625,14.1176470588235,9.61176470588235,87.8,0,27.346,14.00603,185,107.6,17.1875,0,12.5,14.0625,
72,2017-08-12,12:55:22.84062,2.49522,,,,,64.7058823529412,0,-3.125,-3.125,6.8359375,14.0625,0,0,14.7,14.0625,0,0,2617.1875,14.79384948,3.5700153,-11.22383418,16,1.705896,0,11.25,-2.5,10.9375,0.46875,14.1176470588235,9.61176470588235,87.8,0,27.346,14.00603,185,107.6,17.1875,0,14.0625,14.0625,
73,2017-08-12,12:55:22.86562,2.51989,,,,,64.7058823529412,0,-3.125,-3.125,6.8359375,14.0625,0,0,14.7,14.0625,0,0,2625,14.79384948,3.5700153,-11.22383418,16,1.705896,0,11.25,-2.5,10.9375,0.46875,14.1176470588235,9.61176470588235,87.8,0,27.346,14.00603,185,107.6,17.1875,0,14.0625,14.0625,
74,2017-08-12,12:55:22.90563,2.56008,,,,,64.7058823529412,0,-3.125,-3.125,6.8359375,14.0625,0,0,14.7,14.0625,0,0,2617.1875,14.79384948,3.5700153,-11.22383418,16,1.705896,0,11.875,-2.5,10.625,0,14.1176470588235,9.10588235294118,87.8,0,27.346,14.00603,185,107.6,17.1875,0,12.5,14.0625,
75,2017-08-12,12:55:22.93663,2.59149,,,,,64.3137254901961,0,-3.125,-3.125,6.8359375,14.0625,0,0,14.7,14.0625,0,0,2601.5625,14.79384948,3.5700153,-11.22383418,16.5,1.705896,0,11.875,-2.5,10.625,0,14.1176470588235,9.10588235294118,87.8,0,27.346,14.00603,185,107.6,17.1875,0,14.0625,14.0625,
76,2017-08-12,12:55:22.96763,2.62186,,,,,64.7058823529412,0,-3.125,-3.125,6.8359375,14.0625,0,0,14.7,14.0625,0,0,2601.5625,14.79384948,3.5700153,-11.22383418,16.5,1.705896,0,11.875,-2.5,11.25,0.46875,14.1176470588235,9.10588235294118,87.8,0,27.346,14.00603,185,107.6,17.1875,0,14.0625,14.0625,
77,2017-08-12,12:55:23.00463,2.65966,,,,,64.3137254901961,0,-3.125,-3.125,6.8359375,14.0625,0,0,14.7,14.0625,0,0,2609.375,14.79384948,3.6665022,-11.12734728,16.5,1.66668,0,11.875,-2.5,11.25,0.46875,14.1176470588235,9.10588235294118,87.8,0,27.346,14.00603,185,107.6,17.1875,0,14.0625,14.0625,
78,2017-08-12,12:55:23.03563,2.69007,,,,,64.7058823529412,0,-3.125,-3.125,6.8359375,14.0625,0,0,14.7,14.0625,0,0,2609.375,14.79384948,3.6665022,-11.12734728,16.5,1.66668,0,11.875,-2.5,10.625,0.3125,14.1176470588235,9.10588235294118,87.8,0,27.346,14.00603,185,107.6,17.1875,0,14.0625,14.0625,
79,2017-08-12,12:55:23.06163,2.71587,,,,,64.3137254901961,0,-3.125,-3.125,6.8359375,14.0625,0,0,14.7,14.0625,0,0,2601.5625,14.79384948,3.6665022,-11.12734728,16.5,1.66668,0,11.875,-2.5,10.625,0.3125,14.1176470588235,9.10588235294118,87.8,0,27.346,14.00603,185,107.6,17.1875,0,14.0625,14.0625,
80,2017-08-12,12:55:23.09664,2.75135,,,,,64.7058823529412,0,-3.125,-3.125,6.8359375,14.0625,0,0,14.7,14.0625,0,0,2585.9375,14.79384948,3.6665022,-11.12734728,16.5,1.66668,0,11.875,-2.5,11.40625,0.46875,14.1176470588235,9.10588235294118,87.8,0,27.346,14.00603,185,107.6,17.1875,0,12.5,14.0625,
81,2017-08-12,12:55:23.13264,2.78719,,,,,64.7058823529412,0,-3.125,-3.125,6.8359375,14.0625,0,0,14.7,14.0625,0,0,2593.75,14.79384948,3.6665022,-11.12734728,17,1.686288,0,11.875,-2.5,11.40625,0.46875,14.1176470588235,9.10588235294118,87.8,0,27.346,14.00603,185,107.6,17.1875,0,12.5,14.0625,